Change the Weather History Date:

Monday, February 18, 2013

  Actual Average (KPOE) Record (KPOE)
Temperature  
Mean Temperature 58 °F -  
Max Temperature 68 °F 63 °F 80 °F (2000)
Min Temperature 48 °F 43 °F 29 °F (2015)
Degree Days  
Heating Degree Days 7    
Growing Degree Days 8 (Base 50)    
Moisture  
Dew Point 56 °F    
Average Humidity 86    
Maximum Humidity 94    
Minimum Humidity 63    
Precipitation  
Precipitation 0.92 in - - ()
Sea Level Pressure  
Sea Level Pressure 29.95 in    
Wind  
Wind Speed 9 mph (South)    
Max Wind Speed 21 mph    
Max Gust Speed 29 mph    
Visibility 7 miles    
Events Rain , Thunderstorm    
Averages and records for this station are not official NWS values.
T = Trace of Precipitation, MM = Missing Value Source: NWS Daily Summary

Daily Weather History Graph

Daily Weather History Graph

Search for Another Location

Airport or City:

Trip Planner

Search our weather history database for the weather conditions in past years. The results will help you decide how hot, cold, wet, or windy it might be!

Date:

Astronomy

Feb. 18, 2013 Rise Set
Actual Time 6:50 AM CST 6:02 PM CST
Civil Twilight 6:26 AM CST 6:27 PM CST
Nautical Twilight 5:57 AM CST 6:55 PM CST
Astronomical Twilight 5:29 AM CST 7:23 PM CST
Moon 12:00 PM CST (2/18) 1:20 AM CST (2/18)
Length of Visible Light 12h 01m
Length of Day
11h 12m
First Quarter, 58% of the Moon is Illuminated
Feb 18
First Quarter
Feb 25
Full
Mar 4
Last Quarter
Mar 11
New
Mar 19
First Quarter

Hourly Weather History & Observations

Time (CST) Temp. Dew Point Humidity Pressure Visibility Wind Dir Wind Speed Gust Speed Precip Events Conditions
12:53 AM 48.9 °F 44.1 °F 83% 30.11 in 10.0 mi SSE 10.4 mph - N/A   Clear
1:53 AM 48.9 °F 44.1 °F 83% 30.10 in 10.0 mi SSE 9.2 mph - N/A   Clear
2:53 AM 48.9 °F 44.1 °F 83% 30.07 in 10.0 mi SSE 10.4 mph - N/A   Clear
3:53 AM 51.1 °F 45.0 °F 80% 30.06 in 10.0 mi SSE 10.4 mph 19.6 mph N/A   Overcast
4:53 AM 51.1 °F 45.0 °F 80% 30.06 in 10.0 mi SSE 9.2 mph - N/A   Overcast
5:53 AM 52.0 °F 46.0 °F 80% 30.05 in 10.0 mi SSE 10.4 mph - N/A   Overcast
6:53 AM 54.0 °F 46.9 °F 77% 30.03 in 10.0 mi SSE 11.5 mph 20.7 mph N/A   Overcast
7:53 AM 55.0 °F 48.0 °F 77% 30.05 in 10.0 mi SSE 12.7 mph 18.4 mph N/A   Overcast
8:53 AM 57.0 °F 50.0 °F 77% 30.04 in 10.0 mi SSE 10.4 mph 20.7 mph N/A   Overcast
9:53 AM 61.0 °F 51.1 °F 70% 30.03 in 10.0 mi South 12.7 mph 19.6 mph N/A   Overcast
10:53 AM 64.9 °F 53.1 °F 65% 30.02 in 10.0 mi South 16.1 mph 28.8 mph N/A   Overcast
11:53 AM 66.0 °F 54.0 °F 65% 30.00 in 10.0 mi South 10.4 mph 24.2 mph N/A   Overcast
12:53 PM 68.0 °F 55.0 °F 63% 29.96 in 10.0 mi South 20.7 mph 28.8 mph N/A   Overcast
1:53 PM 66.9 °F 55.0 °F 66% 29.93 in 10.0 mi South 11.5 mph 27.6 mph N/A   Overcast
2:53 PM 64.9 °F 57.0 °F 75% 29.89 in 10.0 mi South 12.7 mph 20.7 mph 0.00 in Rain Light Rain
3:07 PM 64.4 °F 57.2 °F 77% 29.89 in 10.0 mi SSE 13.8 mph 23.0 mph 0.01 in Rain , Thunderstorm Light Thunderstorms and Rain
3:30 PM 62.6 °F 59.0 °F 88% 29.90 in 2.5 mi SE 3.5 mph - 0.10 in Rain , Thunderstorm Thunderstorms and Rain
3:37 PM 62.6 °F 59.0 °F 88% 29.89 in 8.0 mi SE 5.8 mph - 0.10 in Rain , Thunderstorm Light Thunderstorms and Rain
3:53 PM 63.0 °F 59.0 °F 87% 29.89 in 5.0 mi South 5.8 mph - 0.13 in Rain , Thunderstorm Thunderstorms and Rain
4:05 PM 62.6 °F 59.0 °F 88% 29.90 in 4.0 mi WSW 3.5 mph - 0.03 in Rain Rain
4:16 PM 62.6 °F 59.0 °F 88% 29.90 in 1.8 mi WNW 3.5 mph - 0.08 in Rain Heavy Rain
4:24 PM 62.6 °F 60.8 °F 94% 29.90 in 1.5 mi Calm Calm - 0.12 in Rain Heavy Rain
4:27 PM 62.6 °F 60.8 °F 94% 29.90 in 2.0 mi Calm Calm - 0.13 in Rain Rain
4:37 PM 62.6 °F 60.8 °F 94% 29.90 in 6.0 mi SSE 4.6 mph - 0.14 in Rain Light Rain
4:53 PM 62.1 °F 60.1 °F 93% 29.90 in 4.0 mi South 10.4 mph - 0.19 in Rain Heavy Rain
4:58 PM 62.6 °F 60.8 °F 94% 29.89 in 2.5 mi South 8.1 mph - 0.02 in Rain Heavy Rain
5:05 PM 62.6 °F 60.8 °F 94% 29.89 in 3.0 mi South 9.2 mph - 0.04 in Rain Light Rain
5:12 PM 62.6 °F 60.8 °F 94% 29.89 in 7.0 mi South 9.2 mph - 0.04 in Rain Light Rain
5:19 PM 62.6 °F 60.8 °F 94% 29.88 in 3.0 mi SSE 10.4 mph - 0.07 in Rain Rain
5:29 PM 62.6 °F 60.8 °F 94% 29.89 in 5.0 mi South 9.2 mph - 0.08 in Rain Light Rain
5:53 PM 63.0 °F 60.1 °F 90% 29.88 in 6.0 mi SSE 9.2 mph - 0.13 in Rain Rain
6:08 PM 62.6 °F 60.8 °F 94% 29.88 in 4.0 mi SSE 8.1 mph - 0.05 in Rain , Thunderstorm Thunderstorms and Rain
6:20 PM 62.6 °F 60.8 °F 94% 29.89 in 3.0 mi Variable 3.5 mph - 0.10 in Rain Heavy Rain
6:40 PM 62.6 °F 60.8 °F 94% 29.90 in 8.0 mi SSW 5.8 mph - 0.22 in Rain Light Rain
6:53 PM 63.0 °F 60.1 °F 90% 29.91 in 10.0 mi SSW 5.8 mph - 0.22 in   Overcast
7:30 PM 62.6 °F 60.8 °F 94% 29.91 in 5.0 mi SSW 5.8 mph - 0.02 in Rain Heavy Rain
7:45 PM 62.6 °F 60.8 °F 94% 29.91 in 2.0 mi West 5.8 mph - 0.10 in Rain Rain
7:48 PM 62.6 °F 60.8 °F 94% 29.91 in 3.0 mi WSW 4.6 mph - 0.11 in Rain Rain
7:53 PM 63.0 °F 61.0 °F 93% 29.91 in 4.0 mi WSW 5.8 mph - 0.12 in Rain Rain
8:02 PM 62.6 °F 60.8 °F 94% 29.90 in 2.0 mi South 5.8 mph - 0.10 in Rain Heavy Rain
8:12 PM 62.6 °F 60.8 °F 94% 29.90 in 10.0 mi SW 5.8 mph - 0.10 in Rain Light Rain
8:48 PM 62.6 °F 60.8 °F 94% 29.92 in 10.0 mi SSW 9.2 mph - 0.10 in   Overcast
8:53 PM 63.0 °F 61.0 °F 93% 29.92 in 10.0 mi SSW 6.9 mph - 0.10 in   Overcast
9:53 PM 64.0 °F 61.0 °F 90% 29.92 in 10.0 mi SW 9.2 mph 18.4 mph N/A   Overcast
10:15 PM 62.6 °F 60.8 °F 94% 29.97 in 8.0 mi West 9.2 mph - 0.01 in Rain , Thunderstorm Light Thunderstorms and Rain
10:24 PM 62.6 °F 57.2 °F 82% 29.97 in 10.0 mi West 11.5 mph 20.7 mph 0.02 in Rain , Thunderstorm Light Thunderstorms and Rain
10:53 PM 60.1 °F 55.9 °F 86% 29.98 in 10.0 mi West 6.9 mph - 0.03 in Rain Light Rain
11:53 PM 59.0 °F 50.0 °F 72% 30.02 in 10.0 mi NW 10.4 mph 20.7 mph 0.00 in   Overcast